Regional Weather Roundup
Issued by NWS

Home | Current Version | Previous Version | Graphics & Text | Print | Product List | Glossary Off
Versions: 1 2 3 4 5 6 7 8 9 10 11 12 13 14 15 16 17 18 19 20 21 22 23 24 25 26 27 28 29 30 31 32 33 34 35 36 37 38 39 40 41 42 43 44 45 46 47 48 49 50

075
ASUS43 KDMX 111403
RWRIA

WEATHER ROUNDUP FOR IOWA
NATIONAL WEATHER SERVICE DES MOINES IA
800 AM CST THU FEB 11 2016

NOTE: "FAIR" INDICATES FEW OR NO CLOUDS BELOW 12,000 FEET WITH NO
SIGNIFICANT WEATHER AND/OR OBSTRUCTIONS TO VISIBILITY.

* - THESE STATIONS ARE NOT NWS STATIONS...THUS NOT UNDER NWS
QUALITY CONTROL.  THEY ALSO DO NOT REPORT WEATHER SUCH
AS PRECIPITATION OR FOG.

IAZ001>003-012>014-020>022-031>034-043>046-111500-
   NORTHWEST IOWA

CITY           SKY/WX    TMP DP  RH WIND       PRES   REMARKS
CARROLL *      CLOUDY    10   3  72 CALM      30.31R
CHEROKEE *     CLOUDY    14   7  73 SE3       30.30R
DENISON *      CLOUDY    12   5  73 E6        30.28R WCI   3
LE MARS *      CLOUDY    14   9  79 SE8       30.29S WCI   3
ORANGE CITY *  CLOUDY    12   9  85 SE7       30.26S WCI   2
SHELDON *      CLOUDY    12   7  79 SE7       30.26S WCI   2
SIOUX CITY     CLOUDY    17   9  70 SE7       30.30S WCI   8
SPENCER        CLOUDY    10   0  63 SE5       30.29R WCI   2
STORM LAKE *   CLOUDY    10   5  79 E6        30.28R WCI   1
$$

IAZ055>058-069>071-079>083-090>094-111500-
   SOUTHWEST IOWA

CITY           SKY/WX    TMP DP  RH WIND       PRES   REMARKS
ATLANTIC *     CLOUDY    12   1  62 E8        30.31R WCI   1
AUDUBON *      CLOUDY    10   1  67 E5        30.31R WCI   2
CLARINDA *     CLOUDY    16   9  73 NE7       30.33R WCI   6
COUNCIL BLFS * CLOUDY    14   5  67 E6        30.30R WCI   5
CRESTON *      CLEAR      9   3  78 E5        30.31R WCI   0
HARLAN  *      CLOUDY    12   5  73 E6        30.35R WCI   3
LAMONI         CLOUDY    11   4  73 N6        30.30S WCI   1
SHENANDOAH *   CLOUDY    16  10  79 NE5       30.33R WCI   9
$$

IAZ047>049-059>061-072>074-084-111500-
   CENTRAL IOWA

CITY           SKY/WX    TMP DP  RH WIND       PRES   REMARKS
AMES           CLOUDY     0  -4  83 CALM      30.33S
ANKENY *       CLOUDY     3  -4  72 N5        30.34S WCI  -6
BOONE *        CLEAR      1  -6  71 NE3       30.31R
CHARITON *     CLEAR      5  -2  72 NE7       30.31S WCI  -7
DES MOINES     CLOUDY     8  -2  63 NE3       30.33R
GRINNELL*      CLOUDY     3  -2  78 CALM      30.33R
KNOXVILLE *    CLOUDY     7  -4  61 N5        30.32R WCI  -2
MARSHALLTOWN   PTCLDY     0  -6  76 N5        30.32S WCI -10
NEWTON *       PTCLDY     3  -2  78 NE6       30.32F WCI  -8
PELLA *        CLOUDY     5  -1  74 CALM      30.34F
$$

IAZ004>006-015-016-023>025-035-036-111500-
   NORTH CENTRAL IOWA

CITY           SKY/WX    TMP DP  RH WIND       PRES   REMARKS
ALGONA *       CLEAR      0  -2  92 E5        30.28F WCI -10
CLARION *      CLEAR     -6 -15  65 CALM      30.32R
ESTHERVILLE    CLOUDY    -4  -6  91 NE3       30.27F
FORT DODGE *   PTCLDY     1  -6  71 CALM      30.32R
MASON CITY     PTCLDY    -3  -8  79 W5        30.32R WCI -13
FOREST CITY *    N/A     -4  -8  84 CALM      30.31R
WEBSTER CITY * CLEAR      0  -6  78 CALM      30.30R
IOWA FALLS *     N/A     -6 -11  77 CALM      30.32S
$$

IAZ007>011-017>019-026>030-037>042-050>054-066-111500-
   NORTHEAST IOWA

CITY           SKY/WX    TMP DP  RH WIND       PRES   REMARKS
CEDAR RAPIDS   CLOUDY     5   2  87 NW3       30.32R
CHARLES CITY * CLEAR     -4  -9  77 N7        30.31S WCI -18
CLINTON *      CLEAR      9   2  73 N6        30.35R WCI  -1
DECORAH *      CLEAR      0  -6  78 CALM      30.30R
DUBUQUE        CLOUDY     6  -2  69 N3        30.30R
MONTICELLO *   CLOUDY     7   0  72 CALM      30.33S
OELWEIN *      CLOUDY     0  -6  78 CALM      30.31F
WATERLOO       PTCLDY     0  -6  76 NW3       30.33S
$$

IAZ064-065-067-068-078-111500-
   EAST CENTRAL IOWA

CITY           SKY/WX    TMP DP  RH WIND       PRES   REMARKS
DAVENPORT      CLEAR      8   1  73 NW3       30.34R
IOWA CITY      PTCLDY    10   1  67 N6        30.37R WCI   0
MT. PLEASANT * PTCLDY    12   5  74 N7        30.35R WCI   1
MUSCATINE *    PTCLDY    10   3  72 CALM      30.37R
QUAD CITIES    PTCLDY    12   0  58 N7        30.35R WCI   1
$$

IAZ062-063-075>077-085>089-095>099-111500-
   SOUTHEAST IOWA

CITY           SKY/WX    TMP DP  RH WIND       PRES   REMARKS
BURLINGTON     CLOUDY    11   4  73 N3        30.34R
FAIRFIELD *    CLEAR      5   0  78 CALM      30.34R
FORT MADISON * CLOUDY     7   3  85 CALM      30.34R
KEOKUK *       CLEAR     10   5  79 N5        30.33R WCI   2
OSKALOOSA *      N/A      3   0  85 N3        30.34R
OTTUMWA        PTCLDY     7   2  80 N7        30.33S WCI  -5
WASHINGTON *   CLEAR      7   1  78 N5        30.36R WCI  -2
$$

ABBREVIATIONS USED IN REMARKS
   TC - TEMPERATURES IN CELSIUS
  WCI - WIND CHILL INDEX
   HX - HEAT INDEX
  VSB - VISIBILITY
$$





USA.gov is the U.S. government's official web portal to all federal, state and local government web resources and services.